www.pogodaiklimat.ru

Погода и климат >> Архив погоды >> Пакистан >> Лахор аэропорт


ПОГОДА в Лахор аэропорту

  • Прогноз погоды в Лахор аэропорту
  • Монитор погоды в Лахор аэропорту

АРХИВ ПОГОДЫ в Лахор аэропорту

Время (UTC), дата Ветер
(напр.,м/с)
 
Видим.   Явления Облачность Т
(С)
Тd
(С)
f
(%)
Тe
(С)
Тes
(С)
Комфортность P
(гПа)
Po
(гПа)
Тmin
(С)
Tmax
(С)
R
(мм)
R24
(мм)
S
(см)
00 9.06 СВ 2 4000 м мгла ясно +29.0 +13.1 38 +31 +31 жарко 1000.1 976.0
03 9.06 штиль 0 4000 м мгла ясно +35.0 +15.2 31 +37 +47 очень
душно
1000.7 977.0 +28.8
06 9.06 ЮВ 2 4000 м мгла 1/0
[Ac trans]
+39.0 +14.6 24 +40 +61 опасность
солнечного
удара
1000.1 976.7
09 9.06 З 3 4000 м мгла ясно +42.5 +13.1 18 +42 +58 опасность
перегрева
999.4 976.3
12 9.06 З 3 4000 м мгла ясно +43.0 +15.2 20 +44 +47 опасность
перегрева
997.2 974.2 +44.6
15 9.06 З 2 4000 м мгла ясно +40.0 +18.3 28 +43 +43 опасность
перегрева
997.5 974.3
18 9.06 В 3 4000 м мгла ясно +35.0 +17.3 35 +38 +38 очень
душно
997.4 973.8
21 9.06 штиль 0 4000 м мгла ясно +31.5 +14.8 36 +33 +33 жарко 997.2 973.3
00 10.06 СВ 2 4000 м мгла ясно +29.5 +13.8 38 +31 +31 жарко 996.7 972.7
03 10.06 В 3 4000 м мгла ясно +35.0 +14.1 29 +36 +43 очень
жарко
997.6 974.0 +29.2
06 10.06 Ю 3 4000 м мгла ясно +41.0 +14.3 21 +42 +58 опасность
перегрева
997.6 974.4
09 10.06 ЮЗ 2 4000 м мгла ясно +44.0 +15.7 20 +46 +63 опасность
перегрева
994.9 972.0
12 10.06 ЮВ 3 4000 м мгла ясно +45.0 +13.7 16 +45 +48 опасность
перегрева
994.1 971.3 +46.5
15 10.06 ЮЗ 3 4000 м мгла 3/3 1200 м
[Sc]
+40.0 +15.0 23 +41 +41 опасность
перегрева
994.5 971.3
18 10.06 СЗ 2 4000 м мгла ясно +36.0 +16.7 32 +39 +39 очень
душно
994.2 970.7
21 10.06 штиль 0 4000 м мгла 3/0
[Ac trans]
+34.5 +16.6 34 +37 +37 очень
душно
993.6 970.0
00 11.06 С 8 2000 м пыльный позёмок 6/3 1200 м
[Sc diur, vesp Ac As]
+30.5 +16.2 42 +34 +34 очень
душно
995.8 971.9
03 11.06 Ю 4 4000 м мгла 5/4 1200 м
[Sc diur, vesp Ac trans]
+34.0 +15.9 34 +36 +39 душно 995.8 972.2 +29.4
06 11.06 Ю 6 4000 м мгла 5/4 1200 м
[Sc diur, vesp Ac trans]
+40.5 +13.4 20 +40 +45 очень
жарко
995.8 972.6
09 11.06 ЮВ 7 4000 м мгла 5/4 1200 м
[Sc diur, vesp Ac trans]
+43.5 +10.8 15 +42 +45 опасность
перегрева
994.7 971.8
12 11.06 Ю 7 4000 м мгла 3/0
[Ac trans]
+43.0 +11.3 15 +42 +43 опасность
перегрева
992.8 969.9 +44.4
15 11.06 Ю 5 4000 м мгла ясно +39.0 +14.6 24 +40 +40 очень
душно
992.8 969.6
18 11.06 ЮВ 2 4000 м мгла 4/0
[Ac trans]
+35.0 +19.3 40 +40 +40 очень
душно
994.0 970.5
21 11.06 ЮВ 4 4000 м мгла 6/3 1200 м
[Sc Ac trans]
+32.5 +18.9 45 +38 +38 очень
душно
993.9 970.2
00 12.06 С 12 1000 м гроза, ливневой дождь 10/8 900 м
[Cb cap As op]
+28.0 +15.9 48 +31 +31 душно 996.5 972.4 0.0
03 12.06 СВ 8 4000 м дым {гроза, дождь} 6/3 1200 м
[Sc diur, vesp Ac As]
+27.0 +19.3 63 +33 +33 очень
душно
999.3 975.0 +22.8 2
06 12.06 ЮВ 9 4000 м мгла 5/0
[Ac trans Ci sp]
+32.0 +19.1 46 +37 +39 очень
душно
998.9 975.0
09 12.06 В 9 2000 м пыльный позёмок 8/4 1200 м
[Sc diur, vesp Ac As]
+38.0 +18.5 32 +42 +42 опасность
перегрева
997.0 973.6
12 12.06 В 6 4000 м мгла 6/5 1200 м
[Sc diur, vesp Ac As]
+36.5 +18.4 35 +41 +41 опасность
перегрева
995.8 972.3 +38.5
15 12.06 В 4 4000 м мгла 3/0
[Ac trans]
+32.0 +16.2 39 +35 +35 очень
душно
997.4 973.6
18 12.06 ЮВ 3 4000 м дым ясно +29.0 +18.2 52 +34 +34 очень
душно
1000.1 976.0
21 12.06 Ю 2 4000 м дым 4/0
[Ac trans]
+27.0 +18.5 60 +32 +32 очень
душно
1000.3 976.0
00 13.06 В 3 4000 м дым 3/0
[Ac trans]
+26.0 +18.2 62 +31 +31 очень
душно
1000.3 975.9
03 13.06 СВ 3 4000 м мгла ясно +31.0 +16.9 43 +35 +42 очень
душно
1002.1 978.1 +25.0
06 13.06 С 2 4000 м мгла ясно +35.5 +15.9 31 +38 +60 опасность
солнечного
удара
1001.9 978.2
09 13.06 З 3 4000 м мгла ясно +40.0 +17.3 27 +43 +57 опасность
перегрева
999.9 976.6
12 13.06 СЗ 3 4000 м мгла ясно +40.5 +18.0 27 +44 +47 опасность
перегрева
998.0 974.8 +42.5
15 13.06 З 2 4000 м мгла ясно +33.0 +14.4 33 +35 +35 душно 998.5 974.7
18 13.06 СЗ 2 4000 м мгла ясно +32.0 +15.2 36 +34 +34 душно 999.4 975.5
21 13.06 З 1 4000 м мгла ясно +30.5 +15.2 40 +33 +33 душно 998.9 974.9
00 14.06 З 2 4000 м дым ясно +28.0 +16.9 51 +32 +32 душно 999.3 975.1
03 14.06 С 3 4000 м мгла ясно +33.5 +15.2 33 +35 +42 душно 1000.0 976.2 +27.0
06 14.06 З 5 4000 м мгла ясно +38.5 +11.1 19 +37 +48 очень
жарко
1000.1 976.7
09 14.06 СЗ 6 4000 м мгла ясно +41.5 +9.8 15 +40 +46 очень
жарко
997.8 974.7
12 14.06 СЗ 5 4000 м мгла ясно +42.0 +12.2 17 +41 +43 опасность
перегрева
995.5 972.5 +43.3
15 14.06 З 2 4000 м мгла ясно +37.5 +13.3 24 +38 +38 очень
жарко
996.9 973.5
18 14.06 ЮЗ 2 4000 м мгла ясно +32.0 +11.8 29 +32 +32 жарко 997.7 973.9
21 14.06 З 3 4000 м мгла ясно +30.0 +13.4 36 +31 +31 жарко 997.1 973.1
00 15.06 З 2 4000 м мгла ясно +29.5 +13.8 38 +31 +31 жарко 997.4 973.4
03 15.06 В 2 2000 м мгла ясно +34.5 +13.3 28 +35 +43 очень
жарко
998.9 975.2 +28.4
06 15.06 З 5 4000 м мгла 4/0
[Ac trans]
+39.5 +16.5 26 +42 +49 опасность
перегрева
999.1 975.8
09 15.06 ЮЗ 2 4000 м мгла 8/3 1200 м
[Sc diur, vesp Ac As]
+42.5 +17.9 24 +45 +51 опасность
перегрева
996.8 973.8
12 15.06 СВ 10 4000 м гроза без осадков 9/6 900 м
[Cb cap Ac As]
+32.0 +16.2 39 +35 +35 очень
душно
997.1 973.3 +44.0 0.0
15 15.06 СЗ 16 1000 м гроза, ливневой дождь 9/6 900 м
[Cb cap Ac As]
+28.0 +18.8 57 +33 +33 очень
душно
1000.3 976.1 0.0
18 15.06 Ю 4 4000 м гроза без осадков 9/6 900 м
[Cb cap Ac As]
+29.0 +18.2 52 +34 +34 очень
душно
999.8 975.7 2

 

Местоположение метеостанции Лахор аэропорт (Пакистан): широта 31.52 долгота 74.40 высота над уровнем моря 216 м.

В архиве по умолчанию представлена погода в Лахор аэропорту за последнюю неделю. Архивные данные за месяц целиком и за предыдущие месяцы, начиная с января 2011 года, Вы можете получить, выбрав интересующий диапазон дат из раскрывающегося списка и нажав кнопку "Ввод!".


*Определитесь, кто Вы:
робот инопланетянин человек

Внимание! Время в таблицах - всемирное. Для получения местного времени необходимо прибавить поправку, которая равна 5 ч.

Смотрите также архив погоды в соседних городах и на ближайших метеорологических станциях:

Погода в Лахоре (Пакистан) (7 км)
Погода в Амритсаре (Пенджаб, Индия) (46 км)
Погода в Касуре (Пакистан) (47 км)
Погода в Гуджранвале (Пакистан) (76 км)
Погода в Наровале (Пакистан) (79 км)
Погода в Хафизабаде (Пакистан) (94 км)
Погода в Сиялкоте (Пакистан) (110 км)
Погода в Гуджрате (Пакистан) (116 км)
Погода в Сиалкот аэропорту (Пакистан) (118 км)
Погода в Окаре (Пакистан) (122 км)

Пояснения к столбцам:

Ветер - указаны скорость ветра в м/с - средняя за 10 мин, порывы в срок и между сроками (в фигурных скобках) и направление, откуда дует ветер: С - северный, СВ - северо-восточный, В - восточный, ЮВ - юго-восточный, Ю - южный, ЮЗ - юго-западный, З - западный, СЗ - северо-западный.
Видимость - горизонтальная дальность видимости в метрах или километрах. При видимости от 1 до 10 км при отсутствии осадков обычно наблюдается дымка, при ухудшении видимости до 1 км и менее - туман. В сухую погоду видимость может ухудшаться дымом, пылью или мглою.
Явления - указаны атмосферные явления, наблюдавшиеся в срок или в последний час перед сроком; фигурными скобками обозначены явления, наблюдавшиеся между сроками (за 1-3 часа до срока); квадратными скобками обозначены град или гололедные отложения с указанием их диаметра в мм.
Облачность - указаны через наклонную черту общая и нижняя облачность в баллах и высота нижней границы облаков в метрах; квадратными скобками обозначены формы облаков: Ci - перистые, Cs - перисто-слоистые, Cc - перисто-кучевые, Ac - высококучевые, As - высокослоистые, Sc - слоисто-кучевые, Ns - слоисто-дождевые, Cu - кучевые, Cb - кучево-дождевые. Подробнее классификацию облаков см. в Атласе облаков (PDF).
T - Температура воздуха - температура, измеренная на высоте 2 м над землей.
Td - Температура точки росы - температура, при понижении до которой содержащийся в воздухе водяной пар достигнет насыщения.
f - Относительная влажность воздуха - влажноcть воздуха, измеренная на высоте 2 м над землей.
Te - Эффективная температура - температура, которую ощущает одетый по сезону человек в тени. Характеристика душности погоды. При расчете учитывается влияние влажности воздуха и скорости ветра на теплоощущения человека.
Tes - Эффективная температура на солнце - температура, которую ощущает человек, с поправкой на солнечный нагрев. Характеристика знойности погоды. Зависит от высоты солнца над горизонтом, облачности и скорости ветра. Ночью, в пасмурную погоду, а также при ветре 12 м/с и более поправка равна нулю.
P - Атмосферное давление - приведенное к уровню моря атмосферное давление.
Po - Атмосферное давление - измеренное на уровне метеостанции атмосферное давление.
Tmin - Минимальная температура - минимум температуры воздуха на высоте 2 м над землей.
Tmax - Максимальная температура - максимум температуры воздуха на высоте 2 м над землей.
R - Количество осадков - Количество выпавших осадков за период времени, мм. При наведении курсора мыши на число - период времени, за который выпало указанное количество осадков.
R24 - Количество осадков - Количество выпавших осадков за 24 часа, мм.
S - Снежный покров - Высота снежного покрова, см. При наведении курсора мыши на число - состояние снежного покрова и степень покрытия местности в баллах.